DW0000 Weather Reports


Display with metric or nautical units.
time (UTC)temp
F
wind
direction
speed
MPH
gust
MPH
rain 1hr
in
rain 24hr
in
rain mn
in
humidity
%
barometer
mb
20260507120008 63 40 6.0 15.0 0.00 0.02 0.00 94 1019.4
20260507115506 63 9 6.0 13.0 0.00 0.02 0.02 94 1019.4
20260507115006 63 30 5.0 12.0 0.00 0.02 0.02 94 1019.4
20260507114508 63 29 5.0 12.0 0.00 0.03 0.02 94 1019.5
20260507113506 63 11 6.0 15.0 0.00 0.03 0.02 94 1019.4
20260507112006 63 27 7.0 12.0 0.00 0.03 0.02 93 1019.7
20260507111509 63 38 6.0 13.0 0.00 0.03 0.02 93 1019.5
20260507110007 63 16 7.0 13.0 0.00 0.03 0.02 93 1019.9
20260507105006 63 49 7.0 14.0 0.00 0.03 0.02 93 1020.0
20260507103508 64 31 8.0 14.0 0.00 0.03 0.02 92 1020.3
20260507103006 64 26 7.0 14.0 0.00 0.03 0.02 92 1020.0
20260507101008 64 14 7.0 16.0 0.00 0.03 0.02 92 1020.2
20260507095507 64 12 11.0 16.0 0.00 0.03 0.02 91 1020.3
20260507094506 64 14 12.0 21.0 0.00 0.03 0.02 91 1020.1
20260507092507 64 7 8.0 15.0 0.00 0.03 0.02 91 1020.1
20260507092006 64 15 10.0 18.0 0.00 0.03 0.02 91 1020.1
20260507091506 64 15 11.0 15.0 0.00 0.03 0.02 91 1020.0
20260507090006 64 1 5.0 14.0 0.00 0.03 0.02 92 1019.7
20260507085505 64 37 7.0 13.0 0.00 0.03 0.02 92 1019.6
20260507084506 64 12 4.0 15.0 0.00 0.03 0.02 92 1019.5
20260507083507 63 48 6.0 15.0 0.00 0.03 0.02 92 1019.4
20260507082506 63 63 4.0 13.0 0.00 0.03 0.02 92 1019.2
20260507080008 64 40 5.0 13.0 0.00 0.03 0.02 92 1019.8
20260507075505 63 43 6.0 12.0 0.00 0.03 0.02 91 1020.1
20260507075006 63 50 5.0 12.0 0.00 0.03 0.02 91 1019.9
20260507074506 64 36 5.0 12.0 0.00 0.03 0.02 91 1020.0
20260507074008 64 65 3.0 12.0 0.00 0.03 0.02 91 1019.7
20260507073506 63 32 6.0 16.0 0.00 0.03 0.02 91 1019.9
20260507073006 63 58 7.0 16.0 0.00 0.03 0.02 91 1020.0
20260507072006 64 33 6.0 15.0 0.00 0.03 0.02 91 1020.0
20260507071007 64 43 9.0 13.0 0.00 0.03 0.02 91 1020.1
20260507070507 64 22 5.0 13.0 0.00 0.03 0.02 90 1020.0
20260507070010 64 57 3.0 10.0 0.00 0.03 0.02 90 1020.1
20260507065505 64 48 6.0 14.0 0.00 0.03 0.02 90 1020.3
20260507064505 64 31 6.0 14.0 0.00 0.03 0.02 89 1020.1
20260507064007 64 69 6.0 15.0 0.00 0.03 0.02 89 1020.4
20260507063006 64 52 5.0 12.0 0.00 0.03 0.02 88 1020.5
20260507061506 64 56 6.0 13.0 0.00 0.03 0.02 87 1020.5
20260507061006 64 40 4.0 12.0 0.00 0.03 0.02 87 1020.4
20260507060005 64 46 5.0 13.0 0.00 0.03 0.02 87 1020.6
20260507055509 64 58 5.0 14.0 0.00 0.03 0.02 87 1020.6
20260507055006 64 31 7.0 14.0 0.00 0.03 0.02 87 1020.6
20260507053506 64 53 7.0 14.0 0.00 0.03 0.02 87 1020.5
20260507051505 64 41 5.0 10.0 0.00 0.03 0.02 86 1020.6
20260507051007 64 23 6.0 12.0 0.00 0.03 0.02 86 1020.5
20260507050006 64 31 5.0 13.0 0.00 0.03 0.02 84 1020.6
20260507045505 64 62 5.0 12.0 0.00 0.03 0.02 84 1020.7
20260507044006 65 19 7.0 15.0 0.00 0.03 0.02 83 1020.7
20260507043007 66 24 14.0 21.0 0.00 0.03 0.02 82 1020.6
20260507042005 66 47 10.0 18.0 0.00 0.03 0.02 81 1020.8
20260507040006 67 27 12.0 24.0 0.00 0.03 0.02 79 1020.9
20260507034507 67 10 6.0 13.0 0.00 0.03 0.02 78 1020.9
20260507034006 68 28 7.0 16.0 0.00 0.03 0.02 78 1020.8
20260507032006 68 55 11.0 18.0 0.00 0.03 0.02 76 1020.9
20260507031506 69 28 8.0 18.0 0.00 0.03 0.02 76 1020.9
20260507031006 69 24 9.0 15.0 0.00 0.03 0.02 76 1020.9
20260507025507 69 22 12.0 22.0 0.00 0.03 0.02 75 1020.9
20260507025005 69 18 7.0 16.0 0.00 0.03 0.02 74 1021.0
20260507023506 70 39 9.0 18.0 0.00 0.03 0.02 73 1021.4
20260507023006 70 19 10.0 21.0 0.00 0.03 0.02 73 1021.4
20260507021506 70 16 11.0 18.0 0.00 0.03 0.02 74 1021.5
20260507021005 70 10 9.0 16.0 0.00 0.03 0.02 75 1021.5
20260507020506 70 19 5.0 16.0 0.00 0.03 0.02 76 1021.5
20260507020005 70 40 7.0 18.0 0.00 0.03 0.02 75 1021.5
20260507015007 70 23 16.0 25.0 0.00 0.03 0.02 74 1021.6
20260507014007 70 21 8.0 18.0 0.00 0.03 0.02 76 1021.6
20260507012505 70 16 13.0 23.0 0.00 0.03 0.02 75 1021.7
20260507012005 70 11 17.0 26.0 0.00 0.03 0.02 74 1021.8
20260507011005 70 25 10.0 22.0 0.00 0.03 0.02 76 1021.8
20260507010505 70 15 14.0 25.0 0.00 0.03 0.02 75 1021.9
20260507010005 69 13 18.0 25.0 0.00 0.03 0.02 76 1021.9
20260507005507 69 25 10.0 23.0 0.00 0.03 0.02 78 1022.1
20260507004505 68 53 9.0 14.0 0.00 0.03 0.02 83 1022.1
20260507003007 70 15 16.0 26.0 0.00 0.03 0.02 76 1022.2
20260507002505 70 30 12.0 23.0 0.00 0.03 0.02 77 1022.4
20260507002005 70 342 5.0 16.0 0.00 0.03 0.02 78 1022.4
20260507001004 70 17 12.0 24.0 0.00 0.03 0.02 79 1022.5
20260507000505 70 18 8.0 21.0 0.00 0.03 0.02 78 1022.3
20260507000005 69 24 8.0 14.0 0.00 0.03 0.02 79 1022.4
20260506234005 70 25 9.0 15.0 0.00 0.03 0.02 78 1022.7
20260506233007 69 22 6.0 17.0 0.00 0.03 0.02 79 1022.6
20260506232005 69 14 12.0 20.0 0.00 0.03 0.02 77 1022.7
20260506231505 69 10 14.0 23.0 0.00 0.03 0.02 77 1022.8
20260506225505 69 23 7.0 15.0 0.00 0.03 0.02 80 1022.9
20260506225004 68 50 7.0 15.0 0.00 0.03 0.02 81 1022.8
20260506224005 68 48 5.0 16.0 0.00 0.03 0.02 79 1023.0
20260506223505 68 23 4.0 13.0 0.00 0.03 0.02 80 1022.8
20260506223005 68 59 6.0 13.0 0.00 0.03 0.02 80 1023.0
20260506221505 67 45 6.0 14.0 0.00 0.03 0.02 83 1023.1
20260506220507 66 44 7.0 14.0 0.00 0.03 0.02 86 1023.1
20260506215505 66 66 4.0 15.0 0.00 0.03 0.02 87 1023.2
20260506215006 65 42 5.0 9.0 0.00 0.03 0.02 90 1023.2
20260506214506 65 46 4.0 9.0 0.00 0.03 0.02 91 1023.2
20260506212506 64 73 4.0 9.0 0.00 0.03 0.02 98 1023.5
20260506212004 63 97 5.0 8.0 0.00 0.03 0.02 99 1023.4
20260506211508 63 84 5.0 8.0 0.00 0.03 0.02 99 1023.6
20260506211012 63 75 3.0 9.0 0.00 0.03 0.02 99 1023.5
20260506210513 62 93 3.0 8.0 0.00 0.03 0.02 99 1023.6
20260506205505 62 115 3.0 6.0 0.00 0.03 0.02 99 1023.7
20260506204504 61 94 3.0 6.0 0.00 0.03 0.02 99 1023.6
20260506204004 61 106 3.0 7.0 0.00 0.03 0.02 99 1023.7
20260506203504 60 118 4.0 8.0 0.00 0.03 0.02 99 1023.8
20260506201506 59 103 4.0 6.0 0.00 0.03 0.02 99 1023.7
20260506201004 59 112 5.0 8.0 0.00 0.03 0.02 99 1023.6
20260506200506 58 113 4.0 7.0 0.00 0.03 0.02 99 1023.7
20260506200005 58 105 4.0 8.0 0.00 0.03 0.02 99 1023.6
20260506195504 58 108 5.0 8.0 0.00 0.03 0.02 99 1023.6
20260506195004 58 107 5.0 7.0 0.00 0.03 0.02 99 1023.7
20260506194504 58 116 5.0 7.0 0.00 0.03 0.02 99 1023.8
20260506194006 58 115 5.0 6.0 0.00 0.03 0.02 99 1023.8
20260506193005 58 109 5.0 7.0 0.00 0.03 0.02 99 1023.7
20260506192504 58 116 5.0 7.0 0.00 0.03 0.02 99 1023.8
20260506192006 58 110 3.0 6.0 0.00 0.03 0.02 99 1023.7
20260506191504 58 98 4.0 6.0 0.00 0.03 0.02 99 1023.7
20260506191005 58 101 4.0 9.0 0.00 0.03 0.02 99 1023.7
20260506184505 59 103 5.0 7.0 0.00 0.03 0.02 99 1023.6
20260506183506 59 93 6.0 8.0 0.00 0.03 0.02 99 1023.7
20260506181005 58 95 4.0 6.0 0.00 0.02 0.02 99 1023.6
20260506180504 58 99 4.0 7.0 0.00 0.02 0.02 99 1023.5
20260506180005 58 103 5.0 8.0 0.00 0.02 0.02 99 1023.6
20260506175506 59 103 5.0 6.0 0.00 0.02 0.02 99 1023.7
20260506173506 59 91 6.0 7.0 0.00 0.02 0.02 99 1023.7
20260506173005 59 91 5.0 7.0 0.00 0.02 0.02 99 1023.7
20260506172505 59 95 4.0 6.0 0.00 0.02 0.02 99 1023.6
20260506171506 59 103 4.0 6.0 0.00 0.02 0.02 99 1023.7
20260506171004 59 105 5.0 7.0 0.00 0.02 0.02 99 1023.7
20260506170504 59 115 4.0 6.0 0.00 0.02 0.02 99 1023.8
20260506170007 59 109 3.0 5.0 0.00 0.02 0.02 99 1023.8
20260506165508 60 110 3.0 6.0 0.00 0.02 0.02 99 1023.8
20260506165006 60 109 4.0 6.0 0.00 0.02 0.02 99 1023.8
20260506164507 60 95 3.0 5.0 0.00 0.02 0.02 99 1023.8
20260506162506 60 78 3.0 5.0 0.00 0.02 0.02 99 1024.2
20260506161508 60 104 3.0 5.0 0.00 0.02 0.02 99 1024.3
20260506161006 60 103 3.0 5.0 0.00 0.02 0.02 99 1024.1
20260506160507 60 109 3.0 5.0 0.00 0.02 0.02 99 1024.3
20260506155508 60 117 3.0 5.0 0.00 0.02 0.02 99 1024.3
20260506155007 60 104 3.0 5.0 0.00 0.02 0.02 99 1024.5
20260506154506 60 82 3.0 3.0 0.00 0.02 0.02 99 1024.3
20260506154006 60 56 1.0 2.0 0.00 0.02 0.02 99 1024.4
20260506153006 60 85 2.0 3.0 0.00 0.02 0.02 99 1024.5
20260506152507 60 93 2.0 2.0 0.00 0.02 0.02 99 1024.5
20260506152008 60 107 2.0 3.0 0.00 0.02 0.02 99 1024.4
20260506151507 60 108 2.0 5.0 0.00 0.02 0.02 99 1024.5
20260506151006 60 119 2.0 3.0 0.00 0.02 0.02 99 1024.5
20260506150506 60 117 2.0 2.0 0.00 0.02 0.02 99 1024.6
20260506150006 60 83 1.0 2.0 0.00 0.02 0.02 99 1024.6
20260506145006 60 90 2.0 3.0 0.00 0.02 0.02 99 1024.5
20260506144006 59 91 1.0 2.0 0.00 0.02 0.02 99 1024.8
20260506143006 59 22 0.0 1.0 0.00 0.02 0.02 99 1025.1
20260506142007 59 358 1.0 3.0 0.00 0.02 0.02 99 1025.1
20260506141006 59 73 2.0 3.0 0.00 0.02 0.02 99 1025.0
20260506140506 59 71 2.0 5.0 0.00 0.02 0.02 99 1024.9
20260506135506 59 87 3.0 5.0 0.00 0.02 0.02 99 1025.2
20260506134506 59 95 3.0 5.0 0.00 0.02 0.02 99 1025.1
20260506134007 58 101 3.0 7.0 0.00 0.02 0.02 99 1025.2
20260506133507 58 124 3.0 6.0 0.00 0.02 0.02 99 1025.3
20260506133008 58 119 4.0 6.0 0.00 0.02 0.02 99 1025.5
20260506125008 58 89 3.0 5.0 0.01 0.02 0.02 99 1025.6
20260506123506 59 99 3.0 6.0 0.02 0.02 0.02 99 1025.6
20260506123006 59 87 4.0 8.0 0.02 0.02 0.02 99 1025.6
20260506122006 59 130 3.0 7.0 0.02 0.02 0.02 99 1025.7
20260506121506 59 117 5.0 7.0 0.02 0.02 0.02 99 1025.9
20260506121007 59 46 3.0 7.0 0.01 0.02 0.01 99 1025.8